Starlink 4683

operational
NORAD ID: 53712 Int'l Des: 2022-107 Owner: SPXS Country: US Constellation: starlink
LEOCIRCULAR

Über Starlink 4683

Beschreibung wird geladen...

Live-Position

3D-Globus wird geladen...

Nächste Überflüge

Höhenverlauf

Altitude vs Time

uPlot chart will show altitude changes over time

Zweizeiliger Elementsatz

1 53712U 22107N 25349.05523014 -.00005831 00000-0 -34870-3 0 9997
2 53712 53.2177 268.6047 0001096 75.2823 284.8290 15.08824544181724
Epoch: 15. Dez. 2025 • Age: 24 hours

Aktueller Status

Höhe 542.9 km
Geschwindigkeit 7.60 km/s
Subsatellitenpunkt 40.77°N, 162.16°W
Startdatum 5. Sept. 2022
Alter 3.2 years
Typ internet

Technische Details

Klassifizierung Payload
Masse 305.00 kg
Trockenmasse 290.00 kg
Gesamtmasse 305.00 kg
Länge 0.20 m
Durchmesser 2.80 m
Spannweite 9.00 m
Form Box + pan
Hersteller SPXS
Bus-Typ Starlink
Phasenstatus In Orbit
Besitzer/Staat SPXS/US

Große Konstellationen

Loading constellations...